Station Historical Data
Daily Summary for March 2, 2018 Units:  English    Metric   Both
« Previous Day
Next Day »
Daily Weekly Monthly Yearly Custom
  High: Low: Average:
Temperature: 34.9 °F 29.4 °F 31.5 °F
Dew Point: 29.0 °F 21.1 °F 25.8 °F
Humidity: 92% 67% 80%
Wind Speed: 17.0mph 0.0mph 5.6mph
Wind Gust: 19.0mph - -
Wind- - West
Pressure: 30.30 in 29.68 in -
Precipitation: 0.00 in    
Historical Graphs
 
 
Tabular Data for March 2, 2018
Time Temperature Dew Point Pressure Wind Wind Speed Wind Gust Humidity Rainfall Rate (Hourly)
00:04 31.4 °F 28.8 °F 29.68 in NE 7.0 mph 12.0 mph 90% 0.00 in
00:09 31.4 °F 28.8 °F 29.68 in NE 5.0 mph 15.0 mph 90% 0.00 in
00:14 31.3 °F 29.0 °F 29.68 in NNE 10.0 mph 12.0 mph 91% 0.00 in
00:19 31.2 °F 28.9 °F 29.68 in NNE 8.0 mph 19.0 mph 91% 0.00 in
00:24 31.2 °F 28.9 °F 29.68 in NNE 17.0 mph 17.0 mph 91% 0.00 in
00:29 31.1 °F 28.8 °F 29.69 in NE 5.0 mph 15.0 mph 91% 0.00 in
00:34 31.1 °F 28.8 °F 29.69 in NNE 8.0 mph 17.0 mph 91% 0.00 in
00:39 31.0 °F 28.7 °F 29.69 in NNE 8.0 mph 15.0 mph 91% 0.00 in
00:44 30.9 °F 28.6 °F 29.70 in NNE 9.0 mph 15.0 mph 91% 0.00 in
00:49 30.9 °F 28.6 °F 29.70 in NNE 8.0 mph 14.0 mph 91% 0.00 in
00:54 30.9 °F 28.6 °F 29.70 in NNE 8.0 mph 14.0 mph 91% 0.00 in
00:59 30.9 °F 28.6 °F 29.70 in NNE 6.0 mph 12.0 mph 91% 0.00 in
01:04 30.8 °F 28.5 °F 29.70 in NE 8.0 mph 13.0 mph 91% 0.00 in
01:09 30.7 °F 28.4 °F 29.71 in NNE 7.0 mph 13.0 mph 91% 0.00 in
01:14 30.6 °F 28.3 °F 29.71 in NNE 8.0 mph 14.0 mph 91% 0.00 in
01:19 30.5 °F 28.2 °F 29.71 in NNE 5.0 mph 10.0 mph 91% 0.00 in
01:24 30.5 °F 28.2 °F 29.71 in NNE 10.0 mph 17.0 mph 91% 0.00 in
01:29 30.4 °F 28.1 °F 29.72 in NNW 10.0 mph 13.0 mph 91% 0.00 in
01:34 30.4 °F 28.1 °F 29.72 in North 6.0 mph 13.0 mph 91% 0.00 in
01:39 30.4 °F 28.1 °F 29.72 in NE 7.0 mph 16.0 mph 91% 0.00 in
01:44 30.3 °F 28.0 °F 29.73 in NNE 8.0 mph 16.0 mph 91% 0.00 in
01:49 30.2 °F 27.9 °F 29.73 in NNE 9.0 mph 14.0 mph 91% 0.00 in
01:54 30.3 °F 28.0 °F 29.73 in NNE 7.0 mph 14.0 mph 91% 0.00 in
01:59 30.3 °F 28.0 °F 29.74 in NNE 6.0 mph 12.0 mph 91% 0.00 in
02:04 30.3 °F 28.0 °F 29.74 in NNE 6.0 mph 12.0 mph 91% 0.00 in
02:09 30.2 °F 27.9 °F 29.75 in North 6.0 mph 12.0 mph 91% 0.00 in
02:14 30.1 °F 27.8 °F 29.75 in NNE 8.0 mph 14.0 mph 91% 0.00 in
02:19 30.1 °F 27.8 °F 29.76 in North 6.0 mph 14.0 mph 91% 0.00 in
02:24 30.1 °F 27.8 °F 29.77 in North 12.0 mph 16.0 mph 91% 0.00 in
02:29 30.0 °F 27.7 °F 29.77 in North 6.0 mph 13.0 mph 91% 0.00 in
02:34 30.0 °F 27.7 °F 29.77 in NNE 5.0 mph 15.0 mph 91% 0.00 in
02:39 30.0 °F 27.7 °F 29.77 in NNE 5.0 mph 12.0 mph 91% 0.00 in
02:44 30.0 °F 27.7 °F 29.78 in NNW 7.0 mph 12.0 mph 91% 0.00 in
02:49 30.0 °F 27.7 °F 29.78 in North 5.0 mph 13.0 mph 91% 0.00 in
02:54 29.9 °F 27.6 °F 29.79 in North 6.0 mph 13.0 mph 91% 0.00 in
02:59 30.0 °F 27.7 °F 29.79 in North 6.0 mph 13.0 mph 91% 0.00 in
03:04 29.9 °F 27.6 °F 29.80 in North 6.0 mph 11.0 mph 91% 0.00 in
03:09 29.9 °F 27.6 °F 29.80 in North 5.0 mph 11.0 mph 91% 0.00 in
03:14 29.9 °F 27.6 °F 29.80 in North 6.0 mph 13.0 mph 91% 0.00 in
03:19 29.9 °F 27.6 °F 29.81 in North 7.0 mph 11.0 mph 91% 0.00 in
03:24 29.9 °F 27.6 °F 29.81 in North 6.0 mph 12.0 mph 91% 0.00 in
03:29 29.9 °F 27.9 °F 29.81 in NNE 6.0 mph 13.0 mph 92% 0.00 in
03:34 29.9 °F 27.9 °F 29.82 in North 7.0 mph 14.0 mph 92% 0.00 in
03:39 29.9 °F 27.9 °F 29.82 in North 7.0 mph 14.0 mph 92% 0.00 in
03:44 29.9 °F 27.9 °F 29.83 in North 6.0 mph 17.0 mph 92% 0.00 in
03:49 29.9 °F 27.9 °F 29.83 in North 5.0 mph 15.0 mph 92% 0.00 in
03:54 29.9 °F 27.9 °F 29.83 in NNE 8.0 mph 11.0 mph 92% 0.00 in
03:59 29.9 °F 27.9 °F 29.84 in North 6.0 mph 15.0 mph 92% 0.00 in
04:04 29.8 °F 27.8 °F 29.84 in North 6.0 mph 15.0 mph 92% 0.00 in
04:09 29.8 °F 27.8 °F 29.85 in North 4.0 mph 13.0 mph 92% 0.00 in
04:14 29.8 °F 27.8 °F 29.85 in North 4.0 mph 13.0 mph 92% 0.00 in
04:19 29.8 °F 27.8 °F 29.85 in North 3.0 mph 13.0 mph 92% 0.00 in
04:24 29.7 °F 27.7 °F 29.85 in North 6.0 mph 13.0 mph 92% 0.00 in
04:34 29.7 °F 27.7 °F 29.86 in North 6.0 mph 16.0 mph 92% 0.00 in
04:39 29.7 °F 27.7 °F 29.86 in NNW 5.0 mph 16.0 mph 92% 0.00 in
04:44 29.7 °F 27.7 °F 29.87 in North 5.0 mph 13.0 mph 92% 0.00 in
04:49 29.6 °F 27.6 °F 29.87 in North 6.0 mph 13.0 mph 92% 0.00 in
04:54 29.6 °F 27.3 °F 29.88 in North 6.0 mph 13.0 mph 91% 0.00 in
04:59 29.6 °F 27.3 °F 29.88 in NW 6.0 mph 15.0 mph 91% 0.00 in
05:04 29.5 °F 27.2 °F 29.89 in NNW 5.0 mph 11.0 mph 91% 0.00 in
05:09 29.5 °F 27.2 °F 29.89 in NNW 5.0 mph 11.0 mph 91% 0.00 in
05:14 29.5 °F 27.2 °F 29.89 in NNW 5.0 mph 11.0 mph 91% 0.00 in
05:19 29.5 °F 27.2 °F 29.90 in NW 1.0 mph 12.0 mph 91% 0.00 in
05:24 29.5 °F 27.2 °F 29.90 in NNE 8.0 mph 12.0 mph 91% 0.00 in
05:29 29.5 °F 27.2 °F 29.91 in NNW 4.0 mph 10.0 mph 91% 0.00 in
05:34 29.5 °F 27.2 °F 29.91 in North 8.0 mph 16.0 mph 91% 0.00 in
05:39 29.5 °F 27.2 °F 29.91 in North 9.0 mph 12.0 mph 91% 0.00 in
05:44 29.5 °F 27.2 °F 29.92 in North 6.0 mph 12.0 mph 91% 0.00 in
05:49 29.5 °F 27.2 °F 29.92 in North 5.0 mph 10.0 mph 91% 0.00 in
05:54 29.5 °F 27.2 °F 29.93 in NNW 5.0 mph 10.0 mph 91% 0.00 in
05:59 29.5 °F 27.2 °F 29.93 in North 6.0 mph 12.0 mph 91% 0.00 in
06:04 29.5 °F 27.2 °F 29.93 in North 5.0 mph 12.0 mph 91% 0.00 in
06:09 29.5 °F 27.2 °F 29.93 in NNW 3.0 mph 9.0 mph 91% 0.00 in
06:14 29.5 °F 27.2 °F 29.93 in NNW 3.0 mph 9.0 mph 91% 0.00 in
06:19 29.5 °F 27.2 °F 29.94 in NNW 5.0 mph 9.0 mph 91% 0.00 in
06:24 29.5 °F 27.2 °F 29.94 in NNW 5.0 mph 9.0 mph 91% 0.00 in
06:29 29.4 °F 27.1 °F 29.95 in North 3.0 mph 7.0 mph 91% 0.00 in
06:34 29.4 °F 27.1 °F 29.95 in North 7.0 mph 9.0 mph 91% 0.00 in
06:39 29.4 °F 27.1 °F 29.95 in NNE 10.0 mph 11.0 mph 91% 0.00 in
06:44 29.4 °F 27.1 °F 29.95 in North 5.0 mph 10.0 mph 91% 0.00 in
06:49 29.4 °F 27.1 °F 29.95 in NNE 5.0 mph 10.0 mph 91% 0.00 in
06:54 29.4 °F 27.1 °F 29.96 in NNW 5.0 mph 11.0 mph 91% 0.00 in
06:59 29.4 °F 27.1 °F 29.96 in North 5.0 mph 11.0 mph 91% 0.00 in
07:04 29.4 °F 27.1 °F 29.96 in NNW 4.0 mph 10.0 mph 91% 0.00 in
07:09 29.5 °F 27.2 °F 29.97 in NNW 4.0 mph 10.0 mph 91% 0.00 in
07:14 29.5 °F 27.2 °F 29.97 in NNW 4.0 mph 9.0 mph 91% 0.00 in
07:19 29.5 °F 27.2 °F 29.97 in North 4.0 mph 8.0 mph 91% 0.00 in
07:24 29.6 °F 27.3 °F 29.98 in North 1.0 mph 8.0 mph 91% 0.00 in
07:29 29.6 °F 27.3 °F 29.98 in NNW 4.0 mph 11.0 mph 91% 0.00 in
07:34 29.6 °F 27.3 °F 29.98 in NNW 4.0 mph 11.0 mph 91% 0.00 in
07:39 29.5 °F 27.2 °F 29.99 in North 4.0 mph 7.0 mph 91% 0.00 in
07:44 29.5 °F 27.2 °F 29.99 in NNW 5.0 mph 12.0 mph 91% 0.00 in
07:49 29.5 °F 27.2 °F 29.99 in NNE 6.0 mph 12.0 mph 91% 0.00 in
07:54 29.5 °F 27.2 °F 29.99 in North 7.0 mph 12.0 mph 91% 0.00 in
07:59 29.6 °F 27.3 °F 30.00 in WNW 9.0 mph 9.0 mph 91% 0.00 in
08:04 29.7 °F 27.4 °F 30.00 in NNW 6.0 mph 11.0 mph 91% 0.00 in
08:09 29.7 °F 27.4 °F 30.00 in NNW 6.0 mph 13.0 mph 91% 0.00 in
08:14 29.8 °F 27.5 °F 30.00 in NNW 5.0 mph 13.0 mph 91% 0.00 in
08:19 29.9 °F 27.6 °F 30.00 in NNW 5.0 mph 12.0 mph 91% 0.00 in
08:24 30.0 °F 27.7 °F 30.00 in NNW 4.0 mph 9.0 mph 91% 0.00 in
08:29 30.1 °F 27.8 °F 30.01 in NNW 4.0 mph 9.0 mph 91% 0.00 in
08:34 30.1 °F 27.8 °F 30.01 in NNW 6.0 mph 12.0 mph 91% 0.00 in
08:39 30.1 °F 27.5 °F 30.01 in NNW 5.0 mph 12.0 mph 90% 0.00 in
08:44 30.3 °F 27.7 °F 30.01 in North 4.0 mph 8.0 mph 90% 0.00 in
08:49 30.5 °F 27.9 °F 30.01 in NNW 4.0 mph 8.0 mph 90% 0.00 in
08:54 30.7 °F 28.1 °F 30.02 in North 4.0 mph 9.0 mph 90% 0.00 in
08:59 30.8 °F 28.2 °F 30.02 in North 2.0 mph 11.0 mph 90% 0.00 in
09:04 30.9 °F 28.3 °F 30.02 in NW 5.0 mph 10.0 mph 90% 0.00 in
09:09 31.0 °F 28.1 °F 30.03 in NNW 5.0 mph 8.0 mph 89% 0.00 in
09:14 31.0 °F 28.1 °F 30.03 in NNW 4.0 mph 8.0 mph 89% 0.00 in
09:19 31.0 °F 28.1 °F 30.03 in NNW 3.0 mph 8.0 mph 89% 0.00 in
09:24 31.1 °F 28.0 °F 30.03 in NNW 3.0 mph 7.0 mph 88% 0.00 in
09:29 31.2 °F 28.1 °F 30.03 in NW 3.0 mph 7.0 mph 88% 0.00 in
09:34 31.4 °F 28.3 °F 30.04 in NW 2.0 mph 6.0 mph 88% 0.00 in
09:39 31.5 °F 28.1 °F 30.04 in NW 2.0 mph 10.0 mph 87% 0.00 in
09:44 31.7 °F 28.0 °F 30.04 in North 1.0 mph 6.0 mph 86% 0.00 in
09:49 31.9 °F 28.2 °F 30.04 in NNW 3.0 mph 6.0 mph 86% 0.01 in
09:54 32.0 °F 28.0 °F 30.04 in North 6.0 mph 11.0 mph 85% 0.01 in
09:59 32.1 °F 27.8 °F 30.05 in NW 3.0 mph 10.0 mph 84% 0.01 in
10:04 32.0 °F 27.4 °F 30.05 in NW 5.0 mph 11.0 mph 83% 0.01 in
10:09 32.0 °F 27.1 °F 30.05 in NW 7.0 mph 12.0 mph 82% 0.01 in
10:14 32.0 °F 26.8 °F 30.06 in NW 4.0 mph 10.0 mph 81% 0.01 in
10:19 32.1 °F 26.9 °F 30.06 in NW 3.0 mph 9.0 mph 81% 0.01 in
10:24 32.1 °F 26.6 °F 30.06 in NNW 5.0 mph 14.0 mph 80% 0.01 in
10:29 32.4 °F 26.6 °F 30.06 in NNW 5.0 mph 14.0 mph 79% 0.01 in
10:34 32.5 °F 26.7 °F 30.07 in NNW 6.0 mph 11.0 mph 79% 0.01 in
10:39 32.6 °F 26.8 °F 30.07 in NNW 5.0 mph 10.0 mph 79% 0.01 in
10:44 32.6 °F 26.5 °F 30.07 in North 4.0 mph 12.0 mph 78% 0.01 in
10:49 32.6 °F 26.2 °F 30.07 in North 4.0 mph 13.0 mph 77% 0.00 in
10:54 32.7 °F 26.3 °F 30.07 in NNW 6.0 mph 13.0 mph 77% 0.00 in
10:59 32.7 °F 26.3 °F 30.08 in NNW 6.0 mph 13.0 mph 77% 0.00 in
11:04 32.7 °F 26.3 °F 30.08 in Calm   10.0 mph 77% 0.02 in
11:09 32.8 °F 26.7 °F 30.08 in North 6.0 mph 12.0 mph 78% 0.02 in
11:14 32.7 °F 26.6 °F 30.08 in NW 4.0 mph 10.0 mph 78% 0.02 in
11:19 32.4 °F 25.7 °F 30.08 in North 3.0 mph 13.0 mph 76% 0.02 in
11:24 32.6 °F 25.9 °F 30.09 in North 12.0 mph 12.0 mph 76% 0.02 in
11:29 32.7 °F 26.0 °F 30.09 in NNW 6.0 mph 14.0 mph 76% 0.02 in
11:34 33.0 °F 26.3 °F 30.09 in North 6.0 mph 14.0 mph 76% 0.02 in
11:39 33.2 °F 26.1 °F 30.09 in North 6.0 mph 12.0 mph 75% 0.02 in
11:44 33.2 °F 26.1 °F 30.09 in NNW 6.0 mph 13.0 mph 75% 0.02 in
11:49 33.0 °F 25.9 °F 30.09 in NNW 6.0 mph 13.0 mph 75% 0.03 in
11:54 33.0 °F 25.9 °F 30.09 in NNW 6.0 mph 15.0 mph 75% 0.03 in
11:59 33.0 °F 25.6 °F 30.09 in NNW 5.0 mph 17.0 mph 74% 0.03 in
12:04 33.0 °F 25.6 °F 30.10 in NNW 6.0 mph 17.0 mph 74% 0.01 in
12:09 33.2 °F 25.8 °F 30.10 in NNW 6.0 mph 14.0 mph 74% 0.01 in
12:14 33.4 °F 26.0 °F 30.10 in NNW 6.0 mph 14.0 mph 74% 0.01 in
12:19 33.4 °F 26.0 °F 30.10 in NW 4.0 mph 15.0 mph 74% 0.01 in
12:24 33.2 °F 25.8 °F 30.10 in NNW 8.0 mph 10.0 mph 74% 0.02 in
12:29 33.2 °F 26.1 °F 30.10 in NW 9.0 mph 15.0 mph 75% 0.02 in
12:34 33.3 °F 26.2 °F 30.10 in North 4.0 mph 12.0 mph 75% 0.02 in
12:39 33.3 °F 26.2 °F 30.10 in NNW 3.0 mph 11.0 mph 75% 0.02 in
12:49 33.6 °F 26.2 °F 30.10 in NNW 5.0 mph 11.0 mph 74% 0.01 in
12:54 33.5 °F 26.1 °F 30.10 in NNW 6.0 mph 15.0 mph 74% 0.01 in
12:59 33.5 °F 26.1 °F 30.10 in NNW 5.0 mph 15.0 mph 74% 0.01 in
13:04 33.7 °F 26.6 °F 30.11 in NW 2.0 mph 10.0 mph 75% 0.02 in
13:09 33.9 °F 26.5 °F 30.11 in NNW 5.0 mph 11.0 mph 74% 0.02 in
13:19 33.4 °F 25.3 °F 30.11 in NNW 8.0 mph 18.0 mph 72% 0.02 in
13:24 33.4 °F 25.3 °F 30.11 in NNW 8.0 mph 18.0 mph 72% 0.01 in
13:29 33.5 °F 25.1 °F 30.11 in NNW 7.0 mph 16.0 mph 71% 0.01 in
13:34 33.7 °F 25.3 °F 30.11 in North 8.0 mph 13.0 mph 71% 0.01 in
13:39 33.7 °F 25.0 °F 30.11 in NW 5.0 mph 13.0 mph 70% 0.01 in
13:44 33.9 °F 25.1 °F 30.12 in North 5.0 mph 15.0 mph 70% 0.01 in
13:49 34.4 °F 25.3 °F 30.12 in NNW 7.0 mph 15.0 mph 69% 0.01 in
13:54 34.9 °F 25.8 °F 30.12 in North 7.0 mph 17.0 mph 69% 0.01 in
13:59 34.4 °F 24.9 °F 30.12 in North 7.0 mph 17.0 mph 68% 0.02 in
14:04 34.1 °F 24.6 °F 30.12 in North 7.0 mph 14.0 mph 68% 0.01 in
14:09 34.4 °F 25.6 °F 30.12 in NNW 5.0 mph 12.0 mph 70% 0.01 in
14:14 34.6 °F 25.1 °F 30.13 in NNW 3.0 mph 9.0 mph 68% 0.01 in
14:19 34.7 °F 24.9 °F 30.13 in North 7.0 mph 11.0 mph 67% 0.01 in
14:24 34.6 °F 24.8 °F 30.13 in NNW 6.0 mph 13.0 mph 67% 0.01 in
14:29 34.4 °F 24.6 °F 30.13 in NNW 11.0 mph 14.0 mph 67% 0.02 in
14:34 34.4 °F 24.6 °F 30.13 in NNW 4.0 mph 16.0 mph 67% 0.02 in
14:39 34.3 °F 24.5 °F 30.13 in NNW 8.0 mph 13.0 mph 67% 0.02 in
14:44 34.3 °F 24.5 °F 30.14 in North 5.0 mph 15.0 mph 67% 0.02 in
14:49 34.1 °F 24.6 °F 30.14 in NNE 5.0 mph 14.0 mph 68% 0.02 in
14:54 34.1 °F 24.6 °F 30.14 in NNW 7.0 mph 13.0 mph 68% 0.02 in
14:59 34.1 °F 24.6 °F 30.14 in North 6.0 mph 13.0 mph 68% 0.01 in
15:04 34.3 °F 25.2 °F 30.15 in NNW 5.0 mph 11.0 mph 69% 0.02 in
15:09 34.3 °F 24.5 °F 30.15 in NNW 5.0 mph 15.0 mph 67% 0.02 in
15:14 34.3 °F 24.5 °F 30.15 in NW 9.0 mph 14.0 mph 67% 0.02 in
15:19 34.3 °F 24.5 °F 30.16 in NNW 3.0 mph 17.0 mph 67% 0.02 in
15:29 34.4 °F 24.6 °F 30.16 in North 5.0 mph 11.0 mph 67% 0.01 in
15:34 34.4 °F 24.9 °F 30.16 in NNW 5.0 mph 11.0 mph 68% 0.01 in
15:39 34.3 °F 24.8 °F 30.16 in NNW 5.0 mph 12.0 mph 68% 0.02 in
15:44 34.3 °F 24.8 °F 30.16 in NNW 5.0 mph 12.0 mph 68% 0.02 in
15:49 34.3 °F 24.8 °F 30.17 in NNE 6.0 mph 13.0 mph 68% 0.02 in
15:54 34.2 °F 24.7 °F 30.17 in North 5.0 mph 13.0 mph 68% 0.02 in
15:59 34.2 °F 25.1 °F 30.17 in NW 2.0 mph 9.0 mph 69% 0.02 in
16:04 34.1 °F 24.6 °F 30.17 in NNW 9.0 mph 12.0 mph 68% 0.01 in
16:14 34.1 °F 25.0 °F 30.17 in NNW 5.0 mph 11.0 mph 69% 0.01 in
16:19 34.3 °F 25.2 °F 30.18 in NNW 5.0 mph 10.0 mph 69% 0.01 in
16:24 34.6 °F 25.8 °F 30.18 in NNW 5.0 mph 9.0 mph 70% 0.02 in
16:29 34.8 °F 26.0 °F 30.18 in NNW 3.0 mph 9.0 mph 70% 0.02 in
16:34 34.7 °F 25.6 °F 30.18 in NNW 4.0 mph 12.0 mph 69% 0.02 in
16:39 34.6 °F 25.5 °F 30.19 in NW 5.0 mph 8.0 mph 69% 0.01 in
16:44 34.5 °F 25.4 °F 30.19 in WNW 10.0 mph 16.0 mph 69% 0.01 in
16:49 34.1 °F 25.3 °F 30.19 in NW 8.0 mph 15.0 mph 70% 0.01 in
16:54 33.9 °F 25.5 °F 30.20 in NW 8.0 mph 13.0 mph 71% 0.01 in
16:59 33.6 °F 25.2 °F 30.20 in NNW 5.0 mph 11.0 mph 71% 0.01 in
17:04 33.7 °F 25.6 °F 30.20 in NNW 4.0 mph 11.0 mph 72% 0.01 in
17:09 33.7 °F 25.6 °F 30.21 in NNW 5.0 mph 17.0 mph 72% 0.01 in
17:14 33.5 °F 25.1 °F 30.21 in WNW 5.0 mph 15.0 mph 71% 0.02 in
17:19 33.4 °F 25.3 °F 30.21 in NW 7.0 mph 15.0 mph 72% 0.02 in
17:24 33.3 °F 25.2 °F 30.22 in NW 7.0 mph 15.0 mph 72% 0.01 in
17:29 33.1 °F 25.1 °F 30.22 in NW 7.0 mph 15.0 mph 72% 0.01 in
17:34 32.9 °F 24.9 °F 30.22 in NW 7.0 mph 15.0 mph 72% 0.01 in
17:39 33.0 °F 25.0 °F 30.23 in NNW 6.0 mph 15.0 mph 72% 0.01 in
17:44 33.0 °F 25.0 °F 30.23 in NNW 5.0 mph 15.0 mph 72% 0.01 in
17:49 33.0 °F 25.0 °F 30.23 in NNW 6.0 mph 15.0 mph 72% 0.01 in
17:54 33.0 °F 25.0 °F 30.23 in NNW 5.0 mph 11.0 mph 72% 0.01 in
17:59 32.9 °F 24.9 °F 30.24 in NNW 4.0 mph 8.0 mph 72% 0.01 in
18:04 32.8 °F 24.8 °F 30.24 in NNW 4.0 mph 9.0 mph 72% 0.01 in
18:09 32.7 °F 24.7 °F 30.24 in NNW 3.0 mph 14.0 mph 72% 0.01 in
18:14 32.6 °F 24.6 °F 30.24 in NW 2.0 mph 8.0 mph 72% 0.00 in
18:19 32.5 °F 24.5 °F 30.24 in WNW 6.0 mph 10.0 mph 72% 0.00 in
18:24 32.4 °F 24.4 °F 30.25 in WNW 9.0 mph 13.0 mph 72% 0.00 in
18:29 32.4 °F 24.4 °F 30.25 in NNW 6.0 mph 13.0 mph 72% 0.00 in
18:34 32.3 °F 24.3 °F 30.25 in NNW 6.0 mph 13.0 mph 72% 0.00 in
18:39 32.3 °F 24.6 °F 30.25 in North 7.0 mph 17.0 mph 73% 0.00 in
18:44 32.2 °F 24.5 °F 30.25 in NNW 6.0 mph 17.0 mph 73% 0.00 in
18:49 32.2 °F 24.5 °F 30.25 in NNW 5.0 mph 12.0 mph 73% 0.01 in
18:54 32.1 °F 24.4 °F 30.26 in NNW 3.0 mph 13.0 mph 73% 0.01 in
18:59 32.1 °F 24.4 °F 30.26 in WNW 8.0 mph 8.0 mph 73% 0.01 in
19:04 32.0 °F 24.3 °F 30.26 in NNW 5.0 mph 12.0 mph 73% 0.01 in
19:09 31.9 °F 24.2 °F 30.26 in NNW 4.0 mph 10.0 mph 73% 0.01 in
19:14 31.9 °F 24.6 °F 30.26 in North 4.0 mph 12.0 mph 74% 0.01 in
19:19 31.9 °F 24.2 °F 30.27 in North 5.0 mph 10.0 mph 73% 0.01 in
19:24 31.9 °F 24.2 °F 30.27 in NNW 5.0 mph 12.0 mph 73% 0.01 in
19:29 31.9 °F 24.2 °F 30.27 in NNW 6.0 mph 12.0 mph 73% 0.01 in
19:34 31.9 °F 24.2 °F 30.27 in NW 9.0 mph 11.0 mph 73% 0.01 in
19:39 31.8 °F 24.1 °F 30.27 in NNW 5.0 mph 15.0 mph 73% 0.01 in
19:44 31.9 °F 23.9 °F 30.27 in NNW 6.0 mph 16.0 mph 72% 0.01 in
19:49 31.8 °F 23.8 °F 30.27 in NNW 6.0 mph 16.0 mph 72% 0.00 in
19:54 31.7 °F 24.0 °F 30.27 in NNW 6.0 mph 15.0 mph 73% 0.00 in
19:59 31.7 °F 24.0 °F 30.28 in North 10.0 mph 12.0 mph 73% 0.00 in
20:04 31.7 °F 23.7 °F 30.28 in NW 6.0 mph 10.0 mph 72% 0.00 in
20:09 31.7 °F 24.0 °F 30.28 in NW 1.0 mph 9.0 mph 73% 0.00 in
20:14 31.7 °F 24.0 °F 30.28 in NNW 5.0 mph 11.0 mph 73% 0.00 in
20:19 31.6 °F 23.9 °F 30.28 in NNW 5.0 mph 11.0 mph 73% 0.00 in
20:24 31.6 °F 23.9 °F 30.28 in NNW 6.0 mph 11.0 mph 73% 0.00 in
20:29 31.5 °F 23.8 °F 30.28 in North 6.0 mph 13.0 mph 73% 0.00 in
20:34 31.5 °F 23.8 °F 30.28 in NNW 5.0 mph 13.0 mph 73% 0.00 in
20:39 31.3 °F 23.6 °F 30.28 in NNW 4.0 mph 11.0 mph 73% 0.00 in
20:44 31.2 °F 23.5 °F 30.28 in North 7.0 mph 10.0 mph 73% 0.00 in
20:49 31.0 °F 23.4 °F 30.29 in North 4.0 mph 10.0 mph 73% 0.00 in
20:54 30.9 °F 23.3 °F 30.29 in North 5.0 mph 14.0 mph 73% 0.00 in
20:59 30.8 °F 22.8 °F 30.29 in North 3.0 mph 13.0 mph 72% 0.00 in
21:04 30.6 °F 22.6 °F 30.29 in NW 5.0 mph 11.0 mph 72% 0.00 in
21:09 30.5 °F 22.5 °F 30.29 in North 5.0 mph 11.0 mph 72% 0.00 in
21:14 30.6 °F 22.6 °F 30.29 in North 4.0 mph 17.0 mph 72% 0.00 in
21:19 30.5 °F 22.2 °F 30.29 in NNW 5.0 mph 17.0 mph 71% 0.00 in
21:24 30.5 °F 22.2 °F 30.29 in North 5.0 mph 13.0 mph 71% 0.00 in
21:29 30.4 °F 22.1 °F 30.29 in North 5.0 mph 10.0 mph 71% 0.00 in
21:34 30.4 °F 22.1 °F 30.29 in North 5.0 mph 10.0 mph 71% 0.00 in
21:39 30.1 °F 21.8 °F 30.29 in NNW 5.0 mph 10.0 mph 71% 0.00 in
21:44 30.1 °F 21.8 °F 30.29 in North 9.0 mph 15.0 mph 71% 0.00 in
21:49 30.2 °F 21.9 °F 30.29 in NNW 5.0 mph 14.0 mph 71% 0.00 in
21:54 30.3 °F 22.0 °F 30.29 in North 6.0 mph 14.0 mph 71% 0.00 in
21:59 30.3 °F 22.0 °F 30.29 in NNW 8.0 mph 11.0 mph 71% 0.00 in
22:04 30.4 °F 22.1 °F 30.29 in NNW 6.0 mph 10.0 mph 71% 0.00 in
22:09 30.3 °F 22.0 °F 30.29 in North 9.0 mph 10.0 mph 71% 0.00 in
22:14 30.3 °F 22.0 °F 30.29 in North 9.0 mph 14.0 mph 71% 0.00 in
22:19 30.3 °F 22.0 °F 30.29 in North 2.0 mph 12.0 mph 71% 0.00 in
22:24 30.3 °F 22.0 °F 30.29 in NNW 7.0 mph 14.0 mph 71% 0.00 in
22:29 30.3 °F 21.7 °F 30.29 in NNW 5.0 mph 14.0 mph 70% 0.00 in
22:34 30.3 °F 21.7 °F 30.29 in NNW 6.0 mph 14.0 mph 70% 0.00 in
22:39 30.3 °F 21.7 °F 30.29 in NNW 6.0 mph 14.0 mph 70% 0.00 in
22:44 30.3 °F 21.7 °F 30.30 in NNW 6.0 mph 13.0 mph 70% 0.00 in
22:49 30.3 °F 21.7 °F 30.30 in North 6.0 mph 13.0 mph 70% 0.00 in
22:54 30.2 °F 21.6 °F 30.30 in NNW 5.0 mph 13.0 mph 70% 0.00 in
22:59 30.1 °F 21.5 °F 30.30 in NNW 3.0 mph 11.0 mph 70% 0.00 in
23:04 30.1 °F 21.5 °F 30.30 in NNW 5.0 mph 11.0 mph 70% 0.00 in
23:09 30.1 °F 21.5 °F 30.30 in North 6.0 mph 15.0 mph 70% 0.00 in
23:14 30.1 °F 21.5 °F 30.30 in NNE 5.0 mph 11.0 mph 70% 0.00 in
23:19 30.1 °F 21.5 °F 30.30 in NNW 5.0 mph 11.0 mph 70% 0.00 in
23:24 30.1 °F 21.5 °F 30.30 in NW 5.0 mph 10.0 mph 70% 0.00 in
23:29 30.1 °F 21.5 °F 30.30 in North 3.0 mph 13.0 mph 70% 0.00 in
23:34 30.1 °F 21.2 °F 30.30 in NNE 5.0 mph 15.0 mph 69% 0.00 in
23:39 30.0 °F 21.1 °F 30.30 in North 6.0 mph 15.0 mph 69% 0.00 in
23:44 30.0 °F 21.4 °F 30.30 in NNW 5.0 mph 11.0 mph 70% 0.00 in
23:49 30.1 °F 21.5 °F 30.30 in NNW 5.0 mph 11.0 mph 70% 0.00 in
23:54 30.0 °F 21.4 °F 30.30 in NNW 4.0 mph 9.0 mph 70% 0.00 in
23:59 29.9 °F 21.3 °F 30.30 in NNW 4.0 mph 10.0 mph 70% 0.00 in
Buffalo, New York, USA
Compliments of Weather Underground - 2.5 mb